Time,TemperatureF,DewpointF,PressureIn,WindDirection,WindDirectionDegrees,WindSpeedMPH,WindSpeedGustMPH,Humidity,HourlyPrecipIn,Conditions,Clouds,dailyrainin,SoftwareType,DateUTC
2013-08-29 00:12:00,75.5,73.0,30.04,ENE,67,4.0,8.0,92,0.00,,,0.00,weatherlink.com 1.10,2013-08-29 04:12:00,
2013-08-29 00:28:00,75.4,73.0,30.03,ENE,67,2.0,8.0,93,0.00,,,0.00,weatherlink.com 1.10,2013-08-29 04:28:00,
2013-08-29 00:43:00,75.3,73.0,30.03,ENE,67,5.0,6.0,93,0.00,,,0.00,weatherlink.com 1.10,2013-08-29 04:43:00,
2013-08-29 00:58:00,75.4,73.0,30.02,ENE,68,0.0,4.0,93,0.00,,,0.00,weatherlink.com 1.10,2013-08-29 04:58:00,
2013-08-29 01:13:00,75.4,73.0,30.02,ENE,72,3.0,5.0,93,0.00,,,0.00,weatherlink.com 1.10,2013-08-29 05:13:00,
2013-08-29 01:28:00,75.4,73.0,30.02,ENE,72,3.0,6.0,93,0.00,,,0.00,weatherlink.com 1.10,2013-08-29 05:28:00,
2013-08-29 01:43:00,75.3,73.0,30.02,ENE,70,5.0,7.0,93,0.00,,,0.00,weatherlink.com 1.10,2013-08-29 05:43:00,
2013-08-29 01:58:00,75.3,73.0,30.02,ENE,70,3.0,5.0,93,0.00,,,0.00,weatherlink.com 1.10,2013-08-29 05:58:00,
2013-08-29 02:13:00,75.2,73.0,30.01,ENE,70,3.0,5.0,93,0.00,,,0.00,weatherlink.com 1.10,2013-08-29 06:13:00,
2013-08-29 02:28:00,75.1,73.0,30.01,ENE,70,2.0,4.0,93,0.00,,,0.00,weatherlink.com 1.10,2013-08-29 06:28:00,
2013-08-29 02:43:00,75.1,73.0,30.01,ENE,70,0.0,3.0,93,0.00,,,0.00,weatherlink.com 1.10,2013-08-29 06:43:00,
2013-08-29 02:58:00,74.9,73.0,30.01,ENE,70,2.0,3.0,93,0.00,,,0.00,weatherlink.com 1.10,2013-08-29 06:58:00,
2013-08-29 03:13:00,74.9,73.0,30.01,ENE,70,3.0,4.0,93,0.00,,,0.00,weatherlink.com 1.10,2013-08-29 07:13:00,
2013-08-29 03:28:00,74.8,73.0,30.01,ENE,70,2.0,3.0,93,0.00,,,0.00,weatherlink.com 1.10,2013-08-29 07:28:00,
2013-08-29 03:43:00,74.6,73.0,30.01,ENE,70,1.0,3.0,94,0.00,,,0.00,weatherlink.com 1.10,2013-08-29 07:43:00,
2013-08-29 03:58:00,74.5,73.0,30.00,ENE,70,2.0,3.0,94,0.00,,,0.00,weatherlink.com 1.10,2013-08-29 07:58:00,
2013-08-29 04:13:00,74.5,73.0,30.00,ENE,70,2.0,4.0,94,0.00,,,0.00,weatherlink.com 1.10,2013-08-29 08:13:00,
2013-08-29 04:28:00,74.5,73.0,30.00,ENE,70,2.0,3.0,94,0.00,,,0.00,weatherlink.com 1.10,2013-08-29 08:28:00,
2013-08-29 04:43:00,74.5,73.0,30.00,ENE,70,1.0,4.0,94,0.00,,,0.00,weatherlink.com 1.10,2013-08-29 08:43:00,
2013-08-29 04:58:00,74.5,73.0,30.00,ENE,70,2.0,4.0,94,0.00,,,0.00,weatherlink.com 1.10,2013-08-29 08:58:00,
2013-08-29 05:13:00,74.4,73.0,29.99,ENE,70,3.0,4.0,94,0.00,,,0.00,weatherlink.com 1.10,2013-08-29 09:13:00,
2013-08-29 05:28:00,74.3,73.0,30.00,ENE,70,2.0,4.0,94,0.00,,,0.00,weatherlink.com 1.10,2013-08-29 09:28:00,
2013-08-29 05:43:00,74.4,73.0,30.00,ENE,70,0.0,3.0,94,0.00,,,0.00,weatherlink.com 1.10,2013-08-29 09:43:00,
2013-08-29 05:58:00,74.4,73.0,30.00,ENE,70,1.0,4.0,94,0.00,,,0.00,weatherlink.com 1.10,2013-08-29 09:58:00,
2013-08-29 06:13:00,74.4,73.0,29.99,ENE,70,3.0,4.0,95,0.00,,,0.00,weatherlink.com 1.10,2013-08-29 10:13:00,
2013-08-29 06:28:00,74.4,73.0,29.99,ENE,70,1.0,4.0,95,0.00,,,0.00,weatherlink.com 1.10,2013-08-29 10:28:00,
2013-08-29 06:43:00,74.5,73.0,29.99,North,355,0.0,8.0,95,0.00,,,0.00,weatherlink.com 1.10,2013-08-29 10:43:00,
2013-08-29 06:58:00,74.5,73.0,29.99,North,355,2.0,3.0,95,0.00,,,0.00,weatherlink.com 1.10,2013-08-29 10:58:00,
2013-08-29 07:13:00,74.5,73.0,30.00,North,357,3.0,4.0,95,0.00,,,0.00,weatherlink.com 1.10,2013-08-29 11:13:00,
2013-08-29 07:28:00,74.7,73.0,30.00,North,357,2.0,3.0,95,0.00,,,0.00,weatherlink.com 1.10,2013-08-29 11:28:00,
2013-08-29 07:43:00,74.8,73.0,30.00,North,357,4.0,4.0,95,0.00,,,0.00,weatherlink.com 1.10,2013-08-29 11:43:00,
2013-08-29 07:58:00,75.1,74.0,30.00,North,1,4.0,6.0,95,0.00,,,0.00,weatherlink.com 1.10,2013-08-29 11:58:00,
2013-08-29 08:13:00,75.3,74.0,30.01,North,10,5.0,6.0,95,0.00,,,0.00,weatherlink.com 1.10,2013-08-29 12:13:00,
2013-08-29 08:28:00,75.8,74.0,30.02,NE,45,4.0,7.0,95,0.00,,,0.00,weatherlink.com 1.10,2013-08-29 12:28:00,
2013-08-29 08:43:00,76.5,75.0,30.02,NE,50,4.0,6.0,95,0.00,,,0.00,weatherlink.com 1.10,2013-08-29 12:43:00,
2013-08-29 08:58:00,77.2,76.0,30.02,NE,52,5.0,7.0,95,0.00,,,0.00,weatherlink.com 1.10,2013-08-29 12:58:00,
2013-08-29 09:13:00,77.5,76.0,30.02,NE,56,3.0,7.0,94,0.00,,,0.00,weatherlink.com 1.10,2013-08-29 13:13:00,
2013-08-29 09:28:00,78.3,77.0,30.02,NE,53,5.0,8.0,94,0.00,,,0.00,weatherlink.com 1.10,2013-08-29 13:28:00,
2013-08-29 09:43:00,79.1,77.0,30.03,NE,53,4.0,9.0,93,0.00,,,0.00,weatherlink.com 1.10,2013-08-29 13:43:00,
2013-08-29 09:58:00,80.0,78.0,30.03,NE,49,6.0,8.0,92,0.00,,,0.00,weatherlink.com 1.10,2013-08-29 13:58:00,
2013-08-29 10:13:00,80.8,78.0,30.03,NE,46,5.0,8.0,91,0.00,,,0.00,weatherlink.com 1.10,2013-08-29 14:13:00,
2013-08-29 10:28:00,81.8,79.0,30.03,NE,42,6.0,7.0,90,0.00,,,0.00,weatherlink.com 1.10,2013-08-29 14:28:00,
2013-08-29 10:43:00,82.4,78.0,30.03,NE,45,1.0,10.0,87,0.00,,,0.00,weatherlink.com 1.10,2013-08-29 14:43:00,
2013-08-29 10:58:00,82.6,78.0,30.03,NNE,22,0.0,7.0,85,0.00,,,0.00,weatherlink.com 1.10,2013-08-29 14:58:00,
2013-08-29 11:13:00,83.6,79.0,30.03,NE,49,3.0,8.0,85,0.00,,,0.00,weatherlink.com 1.10,2013-08-29 15:13:00,
2013-08-29 11:29:00,84.5,77.0,30.03,NNE,31,1.0,5.0,78,0.00,,,0.00,weatherlink.com 1.10,2013-08-29 15:29:00,
2013-08-29 11:44:00,85.2,77.0,30.02,NNE,31,1.0,4.0,76,0.00,,,0.00,weatherlink.com 1.10,2013-08-29 15:44:00,
2013-08-29 11:59:00,85.2,76.0,30.02,NNE,27,0.0,5.0,74,0.00,,,0.00,weatherlink.com 1.10,2013-08-29 15:59:00,
2013-08-29 12:14:00,85.3,76.0,30.02,NW,314,3.0,6.0,74,0.00,,,0.00,weatherlink.com 1.10,2013-08-29 16:14:00,
2013-08-29 12:29:00,85.0,77.0,30.02,WNW,284,3.0,7.0,77,0.00,,,0.00,weatherlink.com 1.10,2013-08-29 16:29:00,
2013-08-29 12:44:00,85.0,77.0,30.02,West,264,5.0,8.0,77,0.00,,,0.00,weatherlink.com 1.10,2013-08-29 16:44:00,
2013-08-29 12:59:00,85.4,77.0,30.02,West,262,3.0,8.0,77,0.00,,,0.00,weatherlink.com 1.10,2013-08-29 16:59:00,
2013-08-29 13:14:00,86.0,77.0,30.01,WSW,247,8.0,11.0,75,0.00,,,0.00,weatherlink.com 1.10,2013-08-29 17:14:00,
2013-08-29 13:29:00,86.2,77.0,30.01,WNW,289,3.0,12.0,75,0.00,,,0.00,weatherlink.com 1.10,2013-08-29 17:29:00,
2013-08-29 13:44:00,86.5,78.0,30.01,West,270,8.0,11.0,75,0.00,,,0.00,weatherlink.com 1.10,2013-08-29 17:44:00,
2013-08-29 13:59:00,86.4,78.0,30.01,WSW,252,10.0,12.0,75,0.00,,,0.00,weatherlink.com 1.10,2013-08-29 17:59:00,
2013-08-29 14:14:00,86.3,78.0,30.00,WSW,242,7.0,9.0,75,0.00,,,0.00,weatherlink.com 1.10,2013-08-29 18:14:00,
2013-08-29 14:29:00,86.2,77.0,30.00,SW,224,7.0,13.0,75,0.00,,,0.00,weatherlink.com 1.10,2013-08-29 18:29:00,
2013-08-29 14:44:00,86.1,77.0,29.99,West,274,7.0,14.0,74,0.00,,,0.00,weatherlink.com 1.10,2013-08-29 18:44:00,
2013-08-29 14:59:00,86.2,77.0,29.99,WNW,282,10.0,15.0,73,0.00,,,0.00,weatherlink.com 1.10,2013-08-29 18:59:00,
2013-08-29 15:14:00,86.3,77.0,29.98,West,275,8.0,18.0,74,0.00,,,0.00,weatherlink.com 1.10,2013-08-29 19:14:00,
2013-08-29 15:29:00,86.3,77.0,29.97,SW,229,7.0,13.0,73,0.00,,,0.00,weatherlink.com 1.10,2013-08-29 19:29:00,
2013-08-29 15:44:00,86.3,76.0,29.97,WSW,253,4.0,15.0,72,0.00,,,0.00,weatherlink.com 1.10,2013-08-29 19:44:00,
2013-08-29 15:59:00,86.5,77.0,29.97,West,273,7.0,14.0,72,0.00,,,0.00,weatherlink.com 1.10,2013-08-29 19:59:00,
2013-08-29 16:14:00,86.9,77.0,29.96,WSW,237,7.0,15.0,72,0.00,,,0.00,weatherlink.com 1.10,2013-08-29 20:14:00,
2013-08-29 16:29:00,86.6,77.0,29.96,WSW,253,10.0,14.0,72,0.00,,,0.00,weatherlink.com 1.10,2013-08-29 20:29:00,
2013-08-29 16:44:00,86.8,77.0,29.96,WNW,293,14.0,16.0,73,0.00,,,0.00,weatherlink.com 1.10,2013-08-29 20:44:00,
2013-08-29 16:59:00,86.4,76.0,29.96,WSW,252,10.0,15.0,72,0.00,,,0.00,weatherlink.com 1.10,2013-08-29 20:59:00,
2013-08-29 17:14:00,86.5,77.0,29.96,WNW,284,10.0,17.0,72,0.00,,,0.00,weatherlink.com 1.10,2013-08-29 21:14:00,
2013-08-29 17:29:00,86.4,77.0,29.95,WSW,255,7.0,15.0,73,0.00,,,0.00,weatherlink.com 1.10,2013-08-29 21:29:00,
2013-08-29 17:44:00,86.7,77.0,29.95,WSW,243,9.0,11.0,72,0.00,,,0.00,weatherlink.com 1.10,2013-08-29 21:44:00,
2013-08-29 17:59:00,86.1,76.0,29.95,WSW,254,3.0,10.0,72,0.00,,,0.00,weatherlink.com 1.10,2013-08-29 21:59:00,
2013-08-29 18:14:00,85.3,76.0,29.96,West,271,8.0,10.0,74,0.00,,,0.00,weatherlink.com 1.10,2013-08-29 22:14:00,
2013-08-29 18:29:00,85.4,76.0,29.95,WSW,254,8.0,10.0,74,0.00,,,0.00,weatherlink.com 1.10,2013-08-29 22:29:00,
2013-08-29 18:44:00,85.7,76.0,29.95,WSW,247,5.0,11.0,73,0.00,,,0.00,weatherlink.com 1.10,2013-08-29 22:44:00,
2013-08-29 18:59:00,85.6,76.0,29.95,West,262,7.0,10.0,74,0.00,,,0.00,weatherlink.com 1.10,2013-08-29 22:59:00,
2013-08-29 19:14:00,85.2,77.0,29.95,WNW,284,4.0,11.0,75,0.00,,,0.00,weatherlink.com 1.10,2013-08-29 23:14:00,
2013-08-29 19:29:00,85.0,77.0,29.95,West,276,7.0,10.0,76,0.00,,,0.00,weatherlink.com 1.10,2013-08-29 23:29:00,
2013-08-29 19:44:00,84.3,76.0,29.96,West,276,5.0,9.0,77,0.00,,,0.00,weatherlink.com 1.10,2013-08-29 23:44:00,
2013-08-29 19:59:00,83.9,76.0,29.96,West,281,2.0,6.0,78,0.00,,,0.00,weatherlink.com 1.10,2013-08-29 23:59:00,
2013-08-29 20:14:00,83.6,77.0,29.96,WNW,283,4.0,8.0,80,0.00,,,0.00,weatherlink.com 1.10,2013-08-30 00:14:00,
2013-08-29 20:30:00,83.4,77.0,29.97,WNW,287,5.0,9.0,81,0.00,,,0.00,weatherlink.com 1.10,2013-08-30 00:30:00,
2013-08-29 20:44:00,83.4,77.0,29.97,NW,306,3.0,5.0,81,0.00,,,0.00,weatherlink.com 1.10,2013-08-30 00:44:00,
2013-08-29 20:59:00,83.6,77.0,29.98,West,280,5.0,8.0,81,0.00,,,0.00,weatherlink.com 1.10,2013-08-30 00:59:00,
2013-08-29 21:14:00,83.6,77.0,29.98,WNW,285,4.0,7.0,80,0.00,,,0.00,weatherlink.com 1.10,2013-08-30 01:14:00,
2013-08-29 21:29:00,83.5,77.0,29.98,WNW,302,3.0,7.0,80,0.00,,,0.00,weatherlink.com 1.10,2013-08-30 01:29:00,
2013-08-29 21:44:00,83.4,77.0,29.98,WNW,296,4.0,7.0,80,0.00,,,0.00,weatherlink.com 1.10,2013-08-30 01:44:00,
2013-08-29 21:59:00,83.3,77.0,29.98,WNW,296,4.0,5.0,81,0.00,,,0.00,weatherlink.com 1.10,2013-08-30 01:59:00,
2013-08-29 22:14:00,83.2,77.0,29.98,WNW,296,3.0,4.0,81,0.00,,,0.00,weatherlink.com 1.10,2013-08-30 02:14:00,
2013-08-29 22:29:00,83.4,77.0,29.99,WNW,296,3.0,5.0,81,0.00,,,0.00,weatherlink.com 1.10,2013-08-30 02:29:00,
2013-08-29 22:44:00,83.3,77.0,29.99,WNW,299,2.0,7.0,81,0.00,,,0.00,weatherlink.com 1.10,2013-08-30 02:44:00,
2013-08-29 22:59:00,83.1,77.0,30.00,WNW,299,1.0,3.0,81,0.00,,,0.00,weatherlink.com 1.10,2013-08-30 02:59:00,
2013-08-29 23:14:00,82.8,77.0,30.00,WNW,299,0.0,0.0,82,0.00,,,0.00,weatherlink.com 1.10,2013-08-30 03:14:00,
2013-08-29 23:29:00,82.5,77.0,29.99,WNW,299,0.0,0.0,82,0.00,,,0.00,weatherlink.com 1.10,2013-08-30 03:29:00,
2013-08-29 23:44:00,82.4,77.0,29.99,WNW,299,0.0,0.0,83,0.00,,,0.00,weatherlink.com 1.10,2013-08-30 03:44:00,
2013-08-29 23:59:00,82.2,77.0,29.99,WNW,299,0.0,0.0,84,0.00,,,0.00,weatherlink.com 1.10,2013-08-30 03:59:00,